When you browse on this site, cookies collect data to enhance your experience and personalize the content and advertising you see.
Visit our Privacy Policy to learn more. By continuing to use the site, you agree to this use of cookies and data.
  • In Hungary
  • List of Countries
  • For 7 days
  • Water Temperature
  • Weather Map
  • News
  • Weather Widgets
  • user-avatar
    Login

    Hourly Weather Grzegorzowice

    Today, 19 September, Thursday

    Time Temperature Precipitation Wind Pressure Humidity
    00:00 +6°C° 0 mm 4 mps 740 mmHg 84%
    01:00 +5°C° 0 mm 3 mps 740 mmHg 87%
    02:00 +5°C° 0.1 mm 3 mps 740 mmHg 88%
    03:00 +5°C° 0.1 mm 3 mps 740 mmHg 90%
    04:00 +4°C° 0.1 mm 3 mps 740 mmHg 92%
    05:00 +5°C° 0 mm 3 mps 740 mmHg 87%
    06:00 +6°C° 0 mm 4 mps 740 mmHg 83%
    07:00 +7°C° 0 mm 4 mps 741 mmHg 78%
    08:00 +8°C° 0 mm 5 mps 741 mmHg 71%
    09:00 +10°C° 0 mm 5 mps 741 mmHg 64%
    10:00 +12°C° 0 mm 5 mps 741 mmHg 56%
    11:00 +13°C° 0.1 mm 5 mps 741 mmHg 54%
    12:00 +13°C° 0.1 mm 5 mps 741 mmHg 52%
    13:00 +14°C° 0.1 mm 5 mps 741 mmHg 49%
    14:00 +13°C° 0.3 mm 4 mps 741 mmHg 54%
    15:00 +13°C° 0.3 mm 4 mps 741 mmHg 58%
    16:00 +12°C° 0.3 mm 4 mps 741 mmHg 62%
    17:00 +11°C° 0.2 mm 4 mps 741 mmHg 69%
    18:00 +9°C° 0.2 mm 3 mps 741 mmHg 75%
    19:00 +8°C° 0.2 mm 3 mps 741 mmHg 81%
    20:00 +7°C° 0.1 mm 3 mps 742 mmHg 82%
    21:00 +7°C° 0.1 mm 3 mps 742 mmHg 83%
    22:00 +7°C° 0.1 mm 3 mps 742 mmHg 84%
    23:00 +5°C° 0 mm 3 mps 742 mmHg 85%

    Tomorrow, 20 September, Friday

    Time Temperature Precipitation Wind Pressure Humidity
    00:00 +5°C° 0 mm 3 mps 742 mmHg 87%
    01:00 +4°C° 0 mm 3 mps 743 mmHg 89%
    02:00 +4°C° 0 mm 3 mps 743 mmHg 91%
    03:00 +4°C° 0 mm 3 mps 743 mmHg 92%
    04:00 +3°C° 0 mm 3 mps 743 mmHg 94%
    05:00 +4°C° 0 mm 3 mps 743 mmHg 90%
    06:00 +5°C° 0 mm 3 mps 743 mmHg 86%
    07:00 +7°C° 0 mm 3 mps 743 mmHg 82%
    08:00 +8°C° 0 mm 3 mps 743 mmHg 74%
    09:00 +10°C° 0 mm 4 mps 744 mmHg 66%
    10:00 +12°C° 0 mm 4 mps 744 mmHg 57%
    11:00 +12°C° 0.1 mm 4 mps 744 mmHg 54%
    12:00 +13°C° 0.1 mm 4 mps 744 mmHg 51%
    13:00 +13°C° 0.1 mm 4 mps 743 mmHg 48%
    14:00 +13°C° 0 mm 4 mps 743 mmHg 49%
    15:00 +13°C° 0 mm 3 mps 743 mmHg 51%
    16:00 +12°C° 0 mm 3 mps 743 mmHg 52%
    17:00 +12°C° 0 mm 2 mps 743 mmHg 57%
    18:00 +9°C° 0 mm 2 mps 743 mmHg 62%
    19:00 +9°C° 0 mm 1 mps 743 mmHg 66%
    20:00 +8°C° 0 mm 1 mps 743 mmHg 67%
    21:00 +8°C° 0 mm 1 mps 743 mmHg 68%
    22:00 +8°C° 0 mm 1 mps 744 mmHg 69%
    23:00 +7°C° 0 mm 2 mps 743 mmHg 71%

    Day after tomorrow, 21 September, Saturday

    Time Temperature Precipitation Wind Pressure Humidity
    00:00 +6°C° 0 mm 2 mps 743 mmHg 73%
    01:00 +6°C° 0 mm 2 mps 743 mmHg 75%
    02:00 +6°C° 0 mm 2 mps 743 mmHg 76%
    03:00 +6°C° 0 mm 2 mps 743 mmHg 77%
    04:00 +6°C° 0 mm 2 mps 743 mmHg 79%
    05:00 +5°C° 0 mm 3 mps 743 mmHg 76%
    06:00 +7°C° 0 mm 3 mps 743 mmHg 74%
    07:00 +8°C° 0 mm 3 mps 743 mmHg 72%
    08:00 +10°C° 0 mm 3 mps 743 mmHg 66%
    09:00 +12°C° 0 mm 4 mps 743 mmHg 60%
    10:00 +14°C° 0 mm 4 mps 743 mmHg 54%
    11:00 +15°C° 0 mm 4 mps 743 mmHg 52%
    12:00 +17°C° 0 mm 4 mps 742 mmHg 50%
    13:00 +17°C° 0 mm 4 mps 742 mmHg 48%
    14:00 +17°C° 0 mm 4 mps 742 mmHg 50%
    15:00 +17°C° 0 mm 3 mps 741 mmHg 51%
    16:00 +17°C° 0 mm 3 mps 741 mmHg 53%
    17:00 +14°C° 0 mm 3 mps 741 mmHg 58%
    18:00 +14°C° 0 mm 2 mps 741 mmHg 63%
    19:00 +12°C° 0 mm 2 mps 741 mmHg 68%
    20:00 +10°C° 0 mm 2 mps 741 mmHg 69%
    21:00 +11°C° 0 mm 1 mps 741 mmHg 70%
    22:00 +11°C° 0 mm 1 mps 741 mmHg 70%
    23:00 +10°C° 0 mm 1 mps 741 mmHg 71%

    22 September, Sunday

    Time Temperature Precipitation Wind Pressure Humidity
    00:00 +10°C° 0 mm 1 mps 740 mmHg 72%
    01:00 +10°C° 0 mm 1 mps 740 mmHg 73%
    02:00 +9°C° 0 mm 1 mps 740 mmHg 73%
    03:00 +9°C° 0 mm 1 mps 740 mmHg 73%
    04:00 +9°C° 0 mm 1 mps 740 mmHg 73%
    05:00 +10°C° 0 mm 1 mps 740 mmHg 70%
    06:00 +11°C° 0 mm 1 mps 740 mmHg 67%
    07:00 +12°C° 0 mm 1 mps 740 mmHg 63%
    08:00 +14°C° 0 mm 1 mps 740 mmHg 57%
    09:00 +16°C° 0 mm 1 mps 740 mmHg 51%
    10:00 +18°C° 0 mm 2 mps 740 mmHg 45%
    11:00 +19°C° 0 mm 2 mps 739 mmHg 43%
    12:00 +20°C° 0 mm 2 mps 739 mmHg 41%
    13:00 +21°C° 0 mm 3 mps 738 mmHg 39%
    14:00 +20°C° 0 mm 3 mps 738 mmHg 42%
    15:00 +20°C° 0 mm 3 mps 738 mmHg 44%
    16:00 +19°C° 0 mm 3 mps 737 mmHg 47%
    17:00 +17°C° 0 mm 3 mps 737 mmHg 51%
    18:00 +14°C° 0 mm 3 mps 737 mmHg 55%
    19:00 +12°C° 0 mm 3 mps 736 mmHg 59%
    20:00 +12°C° 0 mm 3 mps 736 mmHg 60%
    21:00 +11°C° 0 mm 3 mps 736 mmHg 60%
    22:00 +11°C° 0 mm 3 mps 736 mmHg 61%
    23:00 +11°C° 0 mm 3 mps 735 mmHg 61%

    23 September, Monday

    Time Temperature Precipitation Wind Pressure Humidity
    00:00 +11°C° 0 mm 3 mps 735 mmHg 62%
    01:00 +10°C° 0 mm 3 mps 735 mmHg 62%
    02:00 +11°C° 0 mm 3 mps 734 mmHg 59%
    03:00 +12°C° 0 mm 3 mps 734 mmHg 57%
    04:00 +13°C° 0 mm 3 mps 733 mmHg 54%
    05:00 +13°C° 0 mm 3 mps 733 mmHg 56%
    06:00 +13°C° 0 mm 4 mps 733 mmHg 57%
    07:00 +13°C° 0 mm 4 mps 732 mmHg 59%
    08:00 +14°C° 0 mm 3 mps 732 mmHg 59%
    09:00 +16°C° 0 mm 3 mps 732 mmHg 59%
    10:00 +17°C° 0 mm 3 mps 732 mmHg 60%
    11:00 +18°C° 0 mm 2 mps 732 mmHg 57%
    12:00 +19°C° 0 mm 2 mps 732 mmHg 53%
    13:00 +20°C° 0 mm 2 mps 731 mmHg 50%
    14:00 +20°C° 0 mm 2 mps 731 mmHg 53%
    15:00 +20°C° 0 mm 2 mps 731 mmHg 55%
    16:00 +20°C° 0 mm 2 mps 731 mmHg 57%
    17:00 +19°C° 0 mm 2 mps 731 mmHg 62%
    18:00 +17°C° 0 mm 2 mps 731 mmHg 68%
    19:00 +16°C° 0 mm 2 mps 731 mmHg 73%
    20:00 +16°C° 0 mm 3 mps 731 mmHg 72%
    21:00 +14°C° 0 mm 3 mps 731 mmHg 70%
    22:00 +14°C° 0 mm 3 mps 731 mmHg 69%
    23:00 +13°C° 0 mm 3 mps 731 mmHg 75%

    24 September, Tuesday

    Time Temperature Precipitation Wind Pressure Humidity
    00:00 +12°C° 0 mm 3 mps 730 mmHg 81%
    01:00 +12°C° 0 mm 4 mps 730 mmHg 87%
    02:00 +12°C° 0 mm 4 mps 730 mmHg 89%
    03:00 +12°C° 0 mm 4 mps 730 mmHg 90%
    04:00 +13°C° 0 mm 4 mps 730 mmHg 91%
    05:00 +13°C° 0.1 mm 3 mps 730 mmHg 91%
    06:00 +13°C° 0.1 mm 3 mps 730 mmHg 91%
    07:00 +14°C° 0.1 mm 2 mps 730 mmHg 91%
    08:00 +13°C° 0 mm 3 mps 731 mmHg 87%
    09:00 +14°C° 0 mm 3 mps 731 mmHg 84%
    10:00 +16°C° 0 mm 3 mps 731 mmHg 80%
    11:00 +16°C° 0.2 mm 3 mps 731 mmHg 81%
    12:00 +16°C° 0.2 mm 3 mps 731 mmHg 82%
    13:00 +15°C° 0.2 mm 4 mps 731 mmHg 83%
    14:00 +14°C° 0.3 mm 3 mps 732 mmHg 86%
    15:00 +14°C° 0.3 mm 3 mps 732 mmHg 89%
    16:00 +13°C° 0.3 mm 3 mps 732 mmHg 92%
    17:00 +14°C° 0.1 mm 2 mps 732 mmHg 93%
    18:00 +14°C° 0.1 mm 2 mps 732 mmHg 94%
    19:00 +14°C° 0.1 mm 2 mps 733 mmHg 94%
    20:00 +13°C° 0.1 mm 2 mps 733 mmHg 94%
    21:00 +12°C° 0.1 mm 2 mps 733 mmHg 94%
    22:00 +10°C° 0.1 mm 2 mps 733 mmHg 93%
    23:00 +9°C° 0 mm 2 mps 733 mmHg 92%
    Show more